TimeCST,TemperatureF,Dew PointF,Humidity,Sea Level PressureIn,VisibilityMPH,Wind Direction,Wind SpeedMPH,Gust SpeedMPH,PrecipitationIn,Events,Conditions,WindDirDegrees,DateUTC
12:55 AM,60.8,55.4,82,29.88,10.0,SSE,3.5,-,N/A,,Overcast,160,2012-12-08 06:55:00
1:15 AM,60.8,55.4,82,29.88,10.0,SSE,3.5,-,N/A,,Overcast,160,2012-12-08 07:15:00
1:35 AM,60.8,55.4,82,29.88,10.0,Calm,Calm,-,N/A,,Overcast,0,2012-12-08 07:35:00
1:55 AM,60.8,55.4,82,29.88,10.0,SSE,3.5,-,N/A,,Overcast,150,2012-12-08 07:55:00
2:15 AM,60.8,55.4,82,29.88,10.0,SSE,3.5,-,N/A,,Overcast,150,2012-12-08 08:15:00
2:35 AM,60.8,55.4,82,29.88,10.0,SSE,3.5,-,N/A,,Mostly Cloudy,150,2012-12-08 08:35:00
2:55 AM,60.8,57.2,88,29.87,10.0,SSE,4.6,-,N/A,,Mostly Cloudy,150,2012-12-08 08:55:00
3:55 AM,62.6,57.2,82,29.87,10.0,South,5.8,-,N/A,,Overcast,170,2012-12-08 09:55:00
4:55 AM,62.6,57.2,82,29.87,10.0,Variable,4.6,-,N/A,,Overcast,0,2012-12-08 10:55:00
5:55 AM,60.8,57.2,88,29.88,10.0,Calm,Calm,-,N/A,,Overcast,0,2012-12-08 11:55:00
6:55 AM,59.0,59.0,100,29.90,10.0,Calm,Calm,-,N/A,,Overcast,0,2012-12-08 12:55:00
7:55 AM,60.8,59.0,94,29.92,10.0,Calm,Calm,-,N/A,,Overcast,0,2012-12-08 13:55:00
8:55 AM,59.0,59.0,100,29.94,6.0,Calm,Calm,-,N/A,,Overcast,0,2012-12-08 14:55:00
9:55 AM,60.8,60.8,100,29.94,5.0,ESE,3.5,-,N/A,Rain,Light Rain,110,2012-12-08 15:55:00
10:55 AM,60.8,60.8,100,29.93,6.0,Calm,Calm,-,N/A,,Overcast,0,2012-12-08 16:55:00
11:55 AM,60.8,60.8,100,29.90,6.0,South,4.6,-,N/A,,Overcast,170,2012-12-08 17:55:00
12:55 PM,60.8,60.8,100,29.89,1.5,SSE,4.6,-,N/A,,Overcast,160,2012-12-08 18:55:00
1:55 PM,62.6,60.8,94,29.88,3.0,SSW,4.6,-,N/A,,Overcast,210,2012-12-08 19:55:00
2:55 PM,60.8,60.8,100,29.87,3.0,SSE,3.5,-,N/A,,Overcast,160,2012-12-08 20:55:00
3:55 PM,62.6,60.8,94,29.89,5.0,WSW,5.8,-,N/A,,Overcast,240,2012-12-08 21:55:00
4:55 PM,62.6,60.8,94,29.90,2.5,Calm,Calm,-,N/A,,Mostly Cloudy,0,2012-12-08 22:55:00
5:55 PM,62.6,60.8,94,29.91,2.0,Calm,Calm,-,N/A,,Overcast,0,2012-12-08 23:55:00
6:55 PM,60.8,60.8,100,29.91,2.0,Calm,Calm,-,N/A,,Overcast,0,2012-12-09 00:55:00
7:55 PM,60.8,60.8,100,29.91,0.5,Calm,Calm,-,N/A,,Overcast,0,2012-12-09 01:55:00
8:55 PM,60.8,60.8,100,29.92,0.8,Calm,Calm,-,N/A,,Overcast,0,2012-12-09 02:55:00
9:55 PM,60.8,60.8,100,29.92,1.0,Calm,Calm,-,N/A,,Overcast,0,2012-12-09 03:55:00
10:55 PM,60.8,60.8,100,29.91,1.8,ESE,3.5,-,N/A,,Overcast,110,2012-12-09 04:55:00
11:55 PM,62.6,62.6,100,29.90,2.0,Calm,Calm,-,N/A,,Overcast,0,2012-12-09 05:55:00